Time,TemperatureF,DewpointF,PressureIn,WindDirection,WindDirectionDegrees,WindSpeedMPH,WindSpeedGustMPH,Humidity,HourlyPrecipIn,Conditions,Clouds,dailyrainin,SoftwareType,DateUTC
2013-02-15 00:00:00,37.3,32.6,29.76,SSE,161,6.0,6.0,83,0.00,,,0.00,Wunderground v.1.15,2013-02-15 05:00:00,
2013-02-15 00:02:00,37.3,32.6,29.76,SSW,200,6.0,7.0,83,0.00,,,0.00,Wunderground v.1.15,2013-02-15 05:02:00,
2013-02-15 00:04:00,37.2,32.2,29.76,SSW,205,6.0,9.0,82,0.00,,,0.00,Wunderground v.1.15,2013-02-15 05:04:00,
2013-02-15 00:10:00,36.9,31.6,29.76,SW,233,6.0,9.0,81,0.00,,,0.00,Wunderground v.1.15,2013-02-15 05:10:00,
2013-02-15 00:16:00,36.8,31.5,29.76,SSW,211,6.0,9.0,81,0.00,,,0.00,Wunderground v.1.15,2013-02-15 05:16:00,
2013-02-15 00:18:00,36.8,31.5,29.76,West,263,6.0,9.0,81,0.00,,,0.00,Wunderground v.1.15,2013-02-15 05:18:00,
2013-02-15 00:24:00,36.7,31.4,29.77,SW,228,5.0,5.0,81,0.00,,,0.00,Wunderground v.1.15,2013-02-15 05:24:00,
2013-02-15 00:30:00,36.4,31.4,29.77,WSW,246,5.0,9.0,82,0.00,,,0.00,Wunderground v.1.15,2013-02-15 05:30:00,
2013-02-15 00:36:00,36.3,31.3,29.77,SW,224,6.0,9.0,82,0.00,,,0.00,Wunderground v.1.15,2013-02-15 05:36:00,
2013-02-15 00:42:00,36.1,31.1,29.76,WSW,250,5.0,7.0,82,0.00,,,0.00,Wunderground v.1.15,2013-02-15 05:42:00,
2013-02-15 00:48:00,36.0,31.0,29.77,South,190,6.0,7.0,82,0.00,,,0.00,Wunderground v.1.15,2013-02-15 05:48:00,
2013-02-15 00:54:00,35.9,30.9,29.76,SW,214,5.0,7.0,82,0.00,,,0.00,Wunderground v.1.15,2013-02-15 05:54:00,
2013-02-15 01:00:00,35.8,30.8,29.77,SW,235,5.0,8.0,82,0.00,,,0.00,Wunderground v.1.15,2013-02-15 06:00:00,
2013-02-15 01:06:00,35.8,30.8,29.77,SW,218,6.0,8.0,82,0.00,,,0.00,Wunderground v.1.15,2013-02-15 06:06:00,
2013-02-15 01:12:00,35.9,30.9,29.77,WSW,237,6.0,6.0,82,0.00,,,0.00,Wunderground v.1.15,2013-02-15 06:12:00,
2013-02-15 01:18:00,35.9,30.9,29.77,WSW,256,5.0,6.0,82,0.00,,,0.00,Wunderground v.1.15,2013-02-15 06:18:00,
2013-02-15 01:24:00,36.0,30.7,29.77,SW,225,6.0,8.0,81,0.00,,,0.00,Wunderground v.1.15,2013-02-15 06:24:00,
2013-02-15 01:30:00,36.1,30.8,29.77,NW,314,6.0,7.0,81,0.00,,,0.00,Wunderground v.1.15,2013-02-15 06:30:00,
2013-02-15 01:36:00,36.1,30.5,29.77,SW,217,6.0,11.0,80,0.00,,,0.00,Wunderground v.1.15,2013-02-15 06:36:00,
2013-02-15 01:42:00,36.1,30.5,29.77,WSW,253,7.0,7.0,80,0.00,,,0.00,Wunderground v.1.15,2013-02-15 06:42:00,
2013-02-15 01:48:00,36.1,30.5,29.77,WSW,253,7.0,7.0,80,0.00,,,0.00,Wunderground v.1.15,2013-02-15 06:48:00,
2013-02-15 01:54:00,36.0,30.7,29.77,SSE,150,6.0,6.0,81,0.00,,,0.00,Wunderground v.1.15,2013-02-15 06:54:00,
2013-02-15 02:00:00,35.9,30.6,29.77,SSE,168,6.0,10.0,81,0.00,,,0.00,Wunderground v.1.15,2013-02-15 07:00:00,
2013-02-15 02:06:00,35.8,30.5,29.77,WSW,250,6.0,10.0,81,0.00,,,0.00,Wunderground v.1.15,2013-02-15 07:06:00,
2013-02-15 02:12:00,35.8,30.5,29.77,WSW,247,6.0,9.0,81,0.00,,,0.00,Wunderground v.1.15,2013-02-15 07:12:00,
2013-02-15 02:18:00,35.7,30.4,29.77,SE,134,6.0,9.0,81,0.00,,,0.00,Wunderground v.1.15,2013-02-15 07:18:00,
2013-02-15 02:24:00,35.7,30.4,29.77,SSW,200,7.0,13.0,81,0.00,,,0.00,Wunderground v.1.15,2013-02-15 07:24:00,
2013-02-15 02:30:00,35.6,30.3,29.78,WSW,249,6.0,6.0,81,0.00,,,0.00,Wunderground v.1.15,2013-02-15 07:30:00,
2013-02-15 02:36:00,35.5,30.2,29.78,SSW,211,6.0,10.0,81,0.00,,,0.00,Wunderground v.1.15,2013-02-15 07:36:00,
2013-02-15 02:42:00,35.4,30.1,29.78,WSW,244,6.0,7.0,81,0.00,,,0.00,Wunderground v.1.15,2013-02-15 07:42:00,
2013-02-15 02:48:00,35.3,30.4,29.78,West,274,6.0,7.0,82,0.00,,,0.00,Wunderground v.1.15,2013-02-15 07:48:00,
2013-02-15 02:54:00,35.2,30.3,29.78,WSW,240,6.0,10.0,82,0.00,,,0.00,Wunderground v.1.15,2013-02-15 07:54:00,
2013-02-15 03:00:00,35.1,29.9,29.78,WSW,240,6.0,8.0,81,0.00,,,0.00,Wunderground v.1.15,2013-02-15 08:00:00,
2013-02-15 03:06:00,35.1,30.2,29.78,NW,323,6.0,8.0,82,0.00,,,0.00,Wunderground v.1.15,2013-02-15 08:06:00,
2013-02-15 03:12:00,35.0,29.8,29.78,WNW,296,6.0,6.0,81,0.00,,,0.00,Wunderground v.1.15,2013-02-15 08:12:00,
2013-02-15 03:18:00,34.9,30.0,29.78,SSE,160,6.0,6.0,82,0.00,,,0.00,Wunderground v.1.15,2013-02-15 08:18:00,
2013-02-15 03:24:00,34.8,29.9,29.78,SSE,156,6.0,11.0,82,0.00,,,0.00,Wunderground v.1.15,2013-02-15 08:24:00,
2013-02-15 03:30:00,34.8,29.9,29.78,SW,217,6.0,6.0,82,0.00,,,0.00,Wunderground v.1.15,2013-02-15 08:30:00,
2013-02-15 03:36:00,34.7,29.5,29.78,SW,217,6.0,11.0,81,0.00,,,0.00,Wunderground v.1.15,2013-02-15 08:36:00,
2013-02-15 03:42:00,34.7,29.5,29.78,West,260,6.0,12.0,81,0.00,,,0.00,Wunderground v.1.15,2013-02-15 08:42:00,
2013-02-15 03:48:00,34.7,29.5,29.78,NW,311,6.0,12.0,81,0.00,,,0.00,Wunderground v.1.15,2013-02-15 08:48:00,
2013-02-15 03:54:00,34.7,29.5,29.78,West,276,6.0,9.0,81,0.00,,,0.00,Wunderground v.1.15,2013-02-15 08:54:00,
2013-02-15 04:00:00,34.7,29.5,29.78,SSW,207,7.0,7.0,81,0.00,,,0.00,Wunderground v.1.15,2013-02-15 09:00:00,
2013-02-15 04:06:00,34.6,29.4,29.78,South,190,6.0,16.0,81,0.00,,,0.00,Wunderground v.1.15,2013-02-15 09:06:00,
2013-02-15 04:12:00,34.6,29.4,29.78,South,169,6.0,7.0,81,0.00,,,0.00,Wunderground v.1.15,2013-02-15 09:12:00,
2013-02-15 04:18:00,34.6,29.4,29.79,South,187,6.0,9.0,81,0.00,,,0.00,Wunderground v.1.15,2013-02-15 09:18:00,
2013-02-15 04:24:00,34.6,29.4,29.79,South,179,7.0,13.0,81,0.00,,,0.00,Wunderground v.1.15,2013-02-15 09:24:00,
2013-02-15 04:30:00,34.5,29.3,29.80,SSE,168,7.0,7.0,81,0.00,,,0.00,Wunderground v.1.15,2013-02-15 09:30:00,
2013-02-15 04:36:00,34.5,29.3,29.80,South,183,6.0,9.0,81,0.00,,,0.00,Wunderground v.1.15,2013-02-15 09:36:00,
2013-02-15 04:42:00,34.4,29.2,29.80,SW,230,6.0,13.0,81,0.00,,,0.00,Wunderground v.1.15,2013-02-15 09:42:00,
2013-02-15 04:48:00,34.4,29.2,29.80,West,263,6.0,13.0,81,0.00,,,0.00,Wunderground v.1.15,2013-02-15 09:48:00,
2013-02-15 04:54:00,34.4,29.2,29.81,SSW,213,7.0,11.0,81,0.00,,,0.00,Wunderground v.1.15,2013-02-15 09:54:00,
2013-02-15 05:00:00,34.4,29.2,29.81,WSW,246,7.0,7.0,81,0.00,,,0.00,Wunderground v.1.15,2013-02-15 10:00:00,
2013-02-15 05:06:00,34.3,29.1,29.81,SSE,156,6.0,7.0,81,0.00,,,0.00,Wunderground v.1.15,2013-02-15 10:06:00,
2013-02-15 05:12:00,34.3,29.1,29.81,SSW,211,6.0,11.0,81,0.00,,,0.00,Wunderground v.1.15,2013-02-15 10:12:00,
2013-02-15 05:18:00,34.3,29.1,29.81,SSW,195,6.0,11.0,81,0.00,,,0.00,Wunderground v.1.15,2013-02-15 10:18:00,
2013-02-15 05:24:00,34.3,29.4,29.82,South,187,7.0,7.0,82,0.00,,,0.00,Wunderground v.1.15,2013-02-15 10:24:00,
2013-02-15 05:30:00,34.2,29.3,29.82,South,172,6.0,7.0,82,0.00,,,0.00,Wunderground v.1.15,2013-02-15 10:30:00,
2013-02-15 05:36:00,34.1,29.2,29.82,South,190,5.0,12.0,82,0.00,,,0.00,Wunderground v.1.15,2013-02-15 10:36:00,
2013-02-15 05:42:00,34.1,29.2,29.82,WSW,250,6.0,12.0,82,0.00,,,0.00,Wunderground v.1.15,2013-02-15 10:42:00,
2013-02-15 05:48:00,34.1,29.5,29.82,WSW,250,6.0,16.0,83,0.00,,,0.00,Wunderground v.1.15,2013-02-15 10:48:00,
2013-02-15 05:54:00,34.0,29.4,29.83,SW,221,6.0,6.0,83,0.00,,,0.00,Wunderground v.1.15,2013-02-15 10:54:00,
2013-02-15 06:00:00,33.9,29.3,29.83,SSW,203,5.0,5.0,83,0.00,,,0.00,Wunderground v.1.15,2013-02-15 11:00:00,
2013-02-15 06:06:00,33.9,29.3,29.83,West,264,6.0,8.0,83,0.00,,,0.00,Wunderground v.1.15,2013-02-15 11:06:00,
2013-02-15 06:12:00,33.9,29.0,29.84,West,264,5.0,6.0,82,0.00,,,0.00,Wunderground v.1.15,2013-02-15 11:12:00,
2013-02-15 06:18:00,33.9,29.0,29.84,West,270,5.0,6.0,82,0.00,,,0.00,Wunderground v.1.15,2013-02-15 11:18:00,
2013-02-15 06:24:00,33.8,28.6,29.85,SW,229,5.0,5.0,81,0.00,,,0.00,Wunderground v.1.15,2013-02-15 11:24:00,
2013-02-15 06:30:00,33.7,28.5,29.85,SW,224,5.0,5.0,81,0.00,,,0.00,Wunderground v.1.15,2013-02-15 11:30:00,
2013-02-15 06:36:00,33.7,28.5,29.85,SE,136,5.0,6.0,81,0.00,,,0.00,Wunderground v.1.15,2013-02-15 11:36:00,
2013-02-15 06:42:00,33.6,28.4,29.85,West,271,6.0,6.0,81,0.00,,,0.00,Wunderground v.1.15,2013-02-15 11:42:00,
2013-02-15 06:48:00,33.5,28.3,29.85,NNW,343,5.0,6.0,81,0.00,,,0.00,Wunderground v.1.15,2013-02-15 11:48:00,
2013-02-15 06:54:00,33.4,28.2,29.86,SSW,201,4.0,5.0,81,0.00,,,0.00,Wunderground v.1.15,2013-02-15 11:54:00,
2013-02-15 07:00:00,33.3,27.8,29.86,WSW,252,5.0,9.0,80,0.00,,,0.00,Wunderground v.1.15,2013-02-15 12:00:00,
2013-02-15 07:06:00,33.3,28.1,29.86,WSW,240,6.0,9.0,81,0.00,,,0.00,Wunderground v.1.15,2013-02-15 12:06:00,
2013-02-15 07:12:00,33.2,28.0,29.87,SSW,207,5.0,6.0,81,0.00,,,0.00,Wunderground v.1.15,2013-02-15 12:12:00,
2013-02-15 07:18:00,33.1,28.2,29.87,South,191,4.0,6.0,82,0.00,,,0.00,Wunderground v.1.15,2013-02-15 12:18:00,
2013-02-15 07:24:00,33.1,28.2,29.87,South,177,5.0,6.0,82,0.00,,,0.00,Wunderground v.1.15,2013-02-15 12:24:00,
2013-02-15 07:30:00,33.1,28.2,29.87,SW,225,4.0,5.0,82,0.00,,,0.00,Wunderground v.1.15,2013-02-15 12:30:00,
2013-02-15 07:36:00,33.1,28.2,29.87,SSW,210,3.0,5.0,82,0.00,,,0.00,Wunderground v.1.15,2013-02-15 12:36:00,
2013-02-15 07:42:00,33.2,28.6,29.87,SW,229,3.0,7.0,83,0.00,,,0.00,Wunderground v.1.15,2013-02-15 12:42:00,
2013-02-15 07:48:00,33.2,28.6,29.87,NNE,22,3.0,7.0,83,0.00,,,0.00,Wunderground v.1.15,2013-02-15 12:48:00,
2013-02-15 07:54:00,33.2,28.6,29.88,SW,229,4.0,6.0,83,0.00,,,0.00,Wunderground v.1.15,2013-02-15 12:54:00,
2013-02-15 08:00:00,33.2,28.6,29.88,SSW,195,3.0,3.0,83,0.00,,,0.00,Wunderground v.1.15,2013-02-15 13:00:00,
2013-02-15 08:06:00,33.1,27.9,29.89,West,259,3.0,7.0,81,0.00,,,0.00,Wunderground v.1.15,2013-02-15 13:06:00,
2013-02-15 08:12:00,33.0,27.2,29.89,SSE,152,4.0,5.0,79,0.00,,,0.00,Wunderground v.1.15,2013-02-15 13:12:00,
2013-02-15 08:18:00,32.9,26.5,29.90,SW,233,4.0,5.0,77,0.00,,,0.00,Wunderground v.1.15,2013-02-15 13:18:00,
2013-02-15 08:24:00,32.7,26.0,29.90,SW,232,4.0,4.0,76,0.00,,,0.00,Wunderground v.1.15,2013-02-15 13:24:00,
2013-02-15 08:30:00,32.5,25.8,29.90,WSW,243,5.0,5.0,76,0.00,,,0.00,Wunderground v.1.15,2013-02-15 13:30:00,
2013-02-15 08:36:00,32.5,26.1,29.91,SW,229,3.0,5.0,77,0.00,,,0.00,Wunderground v.1.15,2013-02-15 13:36:00,
2013-02-15 08:42:00,32.5,25.8,29.91,SW,217,3.0,3.0,76,0.00,,,0.00,Wunderground v.1.15,2013-02-15 13:42:00,
2013-02-15 08:48:00,32.6,25.9,29.92,South,186,3.0,4.0,76,0.00,,,0.00,Wunderground v.1.15,2013-02-15 13:48:00,
2013-02-15 08:54:00,32.7,26.0,29.92,SW,233,2.0,4.0,76,0.00,,,0.00,Wunderground v.1.15,2013-02-15 13:54:00,
2013-02-15 09:00:00,32.7,25.3,29.92,WSW,246,3.0,3.0,74,0.00,,,0.00,Wunderground v.1.15,2013-02-15 14:00:00,
2013-02-15 09:06:00,32.8,25.4,29.92,WNW,284,4.0,5.0,74,0.00,,,0.00,Wunderground v.1.15,2013-02-15 14:06:00,
2013-02-15 09:12:00,32.9,24.5,29.93,WNW,287,4.0,4.0,71,0.00,,,0.00,Wunderground v.1.15,2013-02-15 14:12:00,
2013-02-15 09:18:00,32.9,24.5,29.93,SE,146,4.0,4.0,71,0.00,,,0.00,Wunderground v.1.15,2013-02-15 14:18:00,
2013-02-15 09:24:00,32.8,24.8,29.93,East,86,3.0,6.0,72,0.00,,,0.00,Wunderground v.1.15,2013-02-15 14:24:00,
2013-02-15 09:30:00,32.7,24.7,29.93,WNW,289,4.0,5.0,72,0.00,,,0.00,Wunderground v.1.15,2013-02-15 14:30:00,
2013-02-15 09:36:00,32.7,25.0,29.93,WSW,243,3.0,5.0,73,0.00,,,0.00,Wunderground v.1.15,2013-02-15 14:36:00,
2013-02-15 09:42:00,32.7,25.0,29.93,SSW,200,4.0,6.0,73,0.00,,,0.00,Wunderground v.1.15,2013-02-15 14:42:00,
2013-02-15 09:48:00,32.6,24.9,29.94,West,278,5.0,10.0,73,0.00,,,0.00,Wunderground v.1.15,2013-02-15 14:48:00,
2013-02-15 09:54:00,32.4,24.7,29.94,SW,228,5.0,11.0,73,0.00,,,0.00,Wunderground v.1.15,2013-02-15 14:54:00,
2013-02-15 10:00:00,32.3,24.6,29.94,SSE,148,4.0,4.0,73,0.00,,,0.00,Wunderground v.1.15,2013-02-15 15:00:00,
2013-02-15 10:06:00,32.7,25.3,29.94,WSW,256,4.0,7.0,74,0.00,,,0.00,Wunderground v.1.15,2013-02-15 15:06:00,
2013-02-15 10:12:00,34.2,26.1,29.94,SW,225,4.0,8.0,72,0.00,,,0.00,Wunderground v.1.15,2013-02-15 15:12:00,
2013-02-15 10:18:00,34.2,25.8,29.94,SW,226,4.0,8.0,71,0.00,,,0.00,Wunderground v.1.15,2013-02-15 15:18:00,
2013-02-15 10:24:00,34.1,25.3,29.94,NW,310,4.0,5.0,70,0.00,,,0.00,Wunderground v.1.15,2013-02-15 15:24:00,
2013-02-15 10:30:00,33.6,24.2,29.95,SW,219,4.0,4.0,68,0.00,,,0.00,Wunderground v.1.15,2013-02-15 15:30:00,
2013-02-15 10:36:00,33.1,22.6,29.95,SW,217,5.0,6.0,65,0.00,,,0.00,Wunderground v.1.15,2013-02-15 15:36:00,
2013-02-15 10:42:00,32.7,22.9,29.95,SW,224,5.0,9.0,67,0.00,,,0.00,Wunderground v.1.15,2013-02-15 15:42:00,
2013-02-15 10:48:00,32.5,23.5,29.95,SW,232,4.0,9.0,69,0.00,,,0.00,Wunderground v.1.15,2013-02-15 15:48:00,
2013-02-15 10:54:00,32.5,23.1,29.96,SE,139,4.0,4.0,68,0.00,,,0.00,Wunderground v.1.15,2013-02-15 15:54:00,
2013-02-15 11:00:00,32.2,23.2,29.96,West,275,4.0,5.0,69,0.00,,,0.00,Wunderground v.1.15,2013-02-15 16:00:00,
2013-02-15 11:06:00,32.4,23.7,29.95,SSE,158,4.0,5.0,70,0.00,,,0.00,Wunderground v.1.15,2013-02-15 16:06:00,
2013-02-15 11:12:00,32.9,23.1,29.96,SW,226,6.0,9.0,67,0.00,,,0.00,Wunderground v.1.15,2013-02-15 16:12:00,
2013-02-15 11:18:00,33.7,24.3,29.96,South,188,5.0,9.0,68,0.00,,,0.00,Wunderground v.1.15,2013-02-15 16:18:00,
2013-02-15 11:24:00,33.7,23.2,29.96,SW,235,5.0,5.0,65,0.00,,,0.00,Wunderground v.1.15,2013-02-15 16:24:00,
2013-02-15 11:30:00,33.8,23.6,29.96,WNW,296,5.0,5.0,66,0.00,,,0.00,Wunderground v.1.15,2013-02-15 16:30:00,
2013-02-15 11:36:00,33.8,23.6,29.96,WSW,252,4.0,5.0,66,0.00,,,0.00,Wunderground v.1.15,2013-02-15 16:36:00,
2013-02-15 11:42:00,33.6,23.8,29.95,SW,219,5.0,5.0,67,0.00,,,0.00,Wunderground v.1.15,2013-02-15 16:42:00,
2013-02-15 11:48:00,33.7,23.9,29.96,SSE,163,5.0,6.0,67,0.00,,,0.00,Wunderground v.1.15,2013-02-15 16:48:00,
2013-02-15 11:54:00,33.8,23.6,29.95,SSE,148,4.0,9.0,66,0.00,,,0.00,Wunderground v.1.15,2013-02-15 16:54:00,
2013-02-15 12:00:00,33.6,22.7,29.96,SSE,148,4.0,4.0,64,0.00,,,0.00,Wunderground v.1.15,2013-02-15 17:00:00,
2013-02-15 12:06:00,33.4,22.9,29.95,SSW,198,5.0,6.0,65,0.00,,,0.00,Wunderground v.1.15,2013-02-15 17:06:00,
2013-02-15 12:12:00,33.5,23.7,29.95,West,260,5.0,5.0,67,0.00,,,0.00,Wunderground v.1.15,2013-02-15 17:12:00,
2013-02-15 12:18:00,33.9,24.1,29.95,WNW,295,4.0,5.0,67,0.00,,,0.00,Wunderground v.1.15,2013-02-15 17:18:00,
2013-02-15 12:24:00,34.1,24.3,29.95,West,278,3.0,6.0,67,0.00,,,0.00,Wunderground v.1.15,2013-02-15 17:24:00,
2013-02-15 12:30:00,34.2,24.0,29.95,WSW,243,3.0,3.0,66,0.00,,,0.00,Wunderground v.1.15,2013-02-15 17:30:00,
2013-02-15 12:36:00,34.1,23.9,29.95,WSW,238,3.0,4.0,66,0.00,,,0.00,Wunderground v.1.15,2013-02-15 17:36:00,
2013-02-15 12:42:00,33.9,23.4,29.95,West,260,3.0,5.0,65,0.00,,,0.00,Wunderground v.1.15,2013-02-15 17:42:00,
2013-02-15 12:48:00,33.5,23.0,29.95,West,268,5.0,6.0,65,0.00,,,0.00,Wunderground v.1.15,2013-02-15 17:48:00,
2013-02-15 12:54:00,33.3,22.8,29.95,SW,226,5.0,5.0,65,0.00,,,0.00,Wunderground v.1.15,2013-02-15 17:54:00,
2013-02-15 13:00:00,33.0,22.5,29.96,SSE,150,5.0,6.0,65,0.00,,,0.00,Wunderground v.1.15,2013-02-15 18:00:00,
2013-02-15 13:06:00,32.6,22.1,29.96,SW,224,5.0,7.0,65,0.00,,,0.00,Wunderground v.1.15,2013-02-15 18:06:00,
2013-02-15 13:12:00,32.6,22.5,29.96,WSW,254,5.0,5.0,66,0.00,,,0.00,Wunderground v.1.15,2013-02-15 18:12:00,
2013-02-15 13:18:00,32.5,22.4,29.96,WSW,252,5.0,5.0,66,0.00,,,0.00,Wunderground v.1.15,2013-02-15 18:18:00,
2013-02-15 13:24:00,32.5,22.8,29.95,East,98,5.0,5.0,67,0.00,,,0.00,Wunderground v.1.15,2013-02-15 18:24:00,
2013-02-15 13:30:00,32.9,23.5,29.96,SW,226,3.0,4.0,68,0.00,,,0.00,Wunderground v.1.15,2013-02-15 18:30:00,
2013-02-15 13:36:00,32.6,22.8,29.96,SE,134,4.0,12.0,67,0.00,,,0.00,Wunderground v.1.15,2013-02-15 18:36:00,
2013-02-15 13:42:00,32.5,22.8,29.96,SW,235,5.0,5.0,67,0.00,,,0.00,Wunderground v.1.15,2013-02-15 18:42:00,
2013-02-15 13:48:00,32.6,22.5,29.96,SW,217,4.0,6.0,66,0.00,,,0.00,Wunderground v.1.15,2013-02-15 18:48:00,
2013-02-15 13:54:00,32.5,22.8,29.96,WSW,246,4.0,4.0,67,0.00,,,0.00,Wunderground v.1.15,2013-02-15 18:54:00,
2013-02-15 14:00:00,32.5,23.1,29.95,South,169,4.0,5.0,68,0.00,,,0.00,Wunderground v.1.15,2013-02-15 19:00:00,
2013-02-15 14:06:00,32.6,22.8,29.95,SSE,148,3.0,5.0,67,0.00,,,0.00,Wunderground v.1.15,2013-02-15 19:06:00,
2013-02-15 14:12:00,32.5,23.1,29.96,SE,124,4.0,4.0,68,0.00,,,0.00,Wunderground v.1.15,2013-02-15 19:12:00,
2013-02-15 14:18:00,32.7,22.9,29.96,West,278,3.0,9.0,67,0.00,,,0.00,Wunderground v.1.15,2013-02-15 19:18:00,
2013-02-15 14:24:00,32.6,22.1,29.96,SSW,197,3.0,6.0,65,0.00,,,0.00,Wunderground v.1.15,2013-02-15 19:24:00,
2013-02-15 14:30:00,32.5,22.0,29.96,WSW,240,4.0,4.0,65,0.00,,,0.00,Wunderground v.1.15,2013-02-15 19:30:00,
2013-02-15 14:36:00,32.4,21.6,29.96,NNW,342,5.0,5.0,64,0.00,,,0.00,Wunderground v.1.15,2013-02-15 19:36:00,
2013-02-15 14:42:00,32.3,20.7,29.96,WNW,298,5.0,7.0,62,0.00,,,0.00,Wunderground v.1.15,2013-02-15 19:42:00,
2013-02-15 14:48:00,32.4,20.8,29.96,SE,141,5.0,7.0,62,0.00,,,0.00,Wunderground v.1.15,2013-02-15 19:48:00,
2013-02-15 14:54:00,32.5,20.9,29.96,SW,235,4.0,6.0,62,0.00,,,0.00,Wunderground v.1.15,2013-02-15 19:54:00,
2013-02-15 15:00:00,32.3,21.1,29.96,East,94,4.0,4.0,63,0.00,,,0.00,Wunderground v.1.15,2013-02-15 20:00:00,
2013-02-15 15:06:00,32.2,21.7,29.96,SW,214,4.0,4.0,65,0.00,,,0.00,Wunderground v.1.15,2013-02-15 20:06:00,
2013-02-15 15:12:00,32.3,21.5,29.96,SSW,210,4.0,9.0,64,0.00,,,0.00,Wunderground v.1.15,2013-02-15 20:12:00,
2013-02-15 15:18:00,32.4,21.6,29.96,WSW,240,3.0,9.0,64,0.00,,,0.00,Wunderground v.1.15,2013-02-15 20:18:00,
2013-02-15 15:24:00,32.2,21.0,29.96,SSE,156,3.0,5.0,63,0.00,,,0.00,Wunderground v.1.15,2013-02-15 20:24:00,
2013-02-15 15:30:00,32.0,20.8,29.97,ESE,123,4.0,4.0,63,0.00,,,0.00,Wunderground v.1.15,2013-02-15 20:30:00,
2013-02-15 15:36:00,31.8,20.6,29.97,South,172,4.0,7.0,63,0.00,,,0.00,Wunderground v.1.15,2013-02-15 20:36:00,
2013-02-15 15:42:00,31.8,20.6,29.97,SSW,212,4.0,4.0,63,0.00,,,0.00,Wunderground v.1.15,2013-02-15 20:42:00,
2013-02-15 15:48:00,31.7,20.9,29.97,SE,135,4.0,5.0,64,0.00,,,0.00,Wunderground v.1.15,2013-02-15 20:48:00,
2013-02-15 15:54:00,31.6,20.8,29.97,WSW,240,4.0,9.0,64,0.00,,,0.00,Wunderground v.1.15,2013-02-15 20:54:00,
2013-02-15 16:00:00,31.4,21.0,29.97,SW,221,4.0,9.0,65,0.00,,,0.00,Wunderground v.1.15,2013-02-15 21:00:00,
2013-02-15 16:06:00,31.3,20.9,29.97,South,169,4.0,9.0,65,0.00,,,0.00,Wunderground v.1.15,2013-02-15 21:06:00,
2013-02-15 16:12:00,31.2,21.2,29.98,South,191,4.0,4.0,66,0.00,,,0.00,Wunderground v.1.15,2013-02-15 21:12:00,
2013-02-15 16:18:00,31.1,21.1,29.98,SW,223,3.0,7.0,66,0.00,,,0.00,Wunderground v.1.15,2013-02-15 21:18:00,
2013-02-15 16:24:00,31.0,21.3,29.98,ESE,105,3.0,4.0,67,0.00,,,0.00,Wunderground v.1.15,2013-02-15 21:24:00,
2013-02-15 16:30:00,30.8,21.1,29.98,WSW,255,3.0,3.0,67,0.00,,,0.00,Wunderground v.1.15,2013-02-15 21:30:00,
2013-02-15 16:36:00,30.6,21.3,29.98,SW,235,3.0,3.0,68,0.00,,,0.00,Wunderground v.1.15,2013-02-15 21:36:00,
2013-02-15 16:42:00,30.5,21.2,29.98,West,260,3.0,3.0,68,0.00,,,0.00,Wunderground v.1.15,2013-02-15 21:42:00,
2013-02-15 16:48:00,30.5,21.2,29.99,SSW,212,3.0,3.0,68,0.00,,,0.00,Wunderground v.1.15,2013-02-15 21:48:00,
2013-02-15 16:54:00,30.4,21.4,29.99,SW,235,2.0,3.0,69,0.00,,,0.00,Wunderground v.1.15,2013-02-15 21:54:00,
2013-02-15 17:00:00,30.2,21.2,29.99,NNW,345,3.0,3.0,69,0.00,,,0.00,Wunderground v.1.15,2013-02-15 22:00:00,
2013-02-15 17:06:00,30.2,21.9,29.99,SW,214,3.0,3.0,71,0.00,,,0.00,Wunderground v.1.15,2013-02-15 22:06:00,
2013-02-15 17:12:00,30.2,21.6,29.99,SW,221,3.0,4.0,70,0.00,,,0.00,Wunderground v.1.15,2013-02-15 22:12:00,
2013-02-15 17:18:00,30.1,21.2,30.00,SW,233,2.0,4.0,69,0.00,,,0.00,Wunderground v.1.15,2013-02-15 22:18:00,
2013-02-15 17:24:00,29.8,20.2,30.00,SW,224,3.0,3.0,67,0.00,,,0.00,Wunderground v.1.15,2013-02-15 22:24:00,
2013-02-15 17:30:00,29.5,19.2,30.00,NE,41,3.0,3.0,65,0.00,,,0.00,Wunderground v.1.15,2013-02-15 22:30:00,
2013-02-15 17:36:00,29.3,18.6,30.00,SW,215,2.0,3.0,64,0.00,,,0.00,Wunderground v.1.15,2013-02-15 22:36:00,
2013-02-15 17:42:00,29.2,18.5,30.00,SSW,211,2.0,4.0,64,0.00,,,0.00,Wunderground v.1.15,2013-02-15 22:42:00,
2013-02-15 17:48:00,29.1,18.8,30.00,SW,221,1.0,4.0,65,0.00,,,0.00,Wunderground v.1.15,2013-02-15 22:48:00,
2013-02-15 17:54:00,29.0,18.7,30.00,SW,225,1.0,2.0,65,0.00,,,0.00,Wunderground v.1.15,2013-02-15 22:54:00,
2013-02-15 18:00:00,28.7,17.7,30.01,South,190,1.0,1.0,63,0.00,,,0.00,Wunderground v.1.15,2013-02-15 23:00:00,
2013-02-15 18:06:00,28.6,17.6,30.01,ENE,61,1.0,2.0,63,0.00,,,0.00,Wunderground v.1.15,2013-02-15 23:06:00,
2013-02-15 18:12:00,28.2,18.6,30.01,NE,48,2.0,2.0,67,0.00,,,0.00,Wunderground v.1.15,2013-02-15 23:12:00,
2013-02-15 18:18:00,27.7,18.5,30.02,SSW,212,1.0,2.0,68,0.00,,,0.00,Wunderground v.1.15,2013-02-15 23:18:00,
2013-02-15 18:24:00,27.2,18.4,30.02,South,186,1.0,2.0,69,0.00,,,0.00,Wunderground v.1.15,2013-02-15 23:24:00,
2013-02-15 18:30:00,27.0,18.2,30.03,SSE,153,2.0,2.0,69,0.00,,,0.00,Wunderground v.1.15,2013-02-15 23:30:00,
2013-02-15 18:36:00,26.8,18.0,30.03,SW,231,3.0,5.0,69,0.00,,,0.00,Wunderground v.1.15,2013-02-15 23:36:00,
2013-02-15 18:42:00,26.7,17.9,30.03,WSW,248,2.0,2.0,69,0.00,,,0.00,Wunderground v.1.15,2013-02-15 23:42:00,
2013-02-15 18:48:00,26.5,18.0,30.03,WSW,246,1.0,2.0,70,0.00,,,0.00,Wunderground v.1.15,2013-02-15 23:48:00,
2013-02-15 18:54:00,26.3,17.8,30.04,SE,141,1.0,2.0,70,0.00,,,0.00,Wunderground v.1.15,2013-02-15 23:54:00,
2013-02-15 19:00:00,26.0,17.6,30.04,West,260,2.0,2.0,70,0.00,,,0.00,Wunderground v.1.15,2013-02-16 00:00:00,
2013-02-15 19:06:00,25.8,17.7,30.04,SW,228,2.0,2.0,71,0.00,,,0.00,Wunderground v.1.15,2013-02-16 00:06:00,
2013-02-15 19:12:00,25.5,17.7,30.04,West,270,1.0,1.0,72,0.00,,,0.00,Wunderground v.1.15,2013-02-16 00:12:00,
2013-02-15 19:18:00,25.3,17.5,30.05,NW,309,1.0,3.0,72,0.00,,,0.00,Wunderground v.1.15,2013-02-16 00:18:00,
2013-02-15 19:24:00,25.2,17.1,30.05,SW,219,2.0,6.0,71,0.00,,,0.00,Wunderground v.1.15,2013-02-16 00:24:00,
2013-02-15 19:30:00,25.1,16.4,30.05,SE,136,3.0,3.0,69,0.00,,,0.00,Wunderground v.1.15,2013-02-16 00:30:00,
2013-02-15 19:36:00,25.1,16.4,30.05,South,180,3.0,5.0,69,0.00,,,0.00,Wunderground v.1.15,2013-02-16 00:36:00,
2013-02-15 19:42:00,25.1,16.0,30.05,WNW,290,2.0,2.0,68,0.00,,,0.00,Wunderground v.1.15,2013-02-16 00:42:00,
2013-02-15 19:48:00,25.1,16.0,30.05,SW,217,2.0,3.0,68,0.00,,,0.00,Wunderground v.1.15,2013-02-16 00:48:00,
2013-02-15 19:54:00,25.1,16.0,30.05,SSW,203,2.0,2.0,68,0.00,,,0.00,Wunderground v.1.15,2013-02-16 00:54:00,
2013-02-15 20:00:00,25.0,15.6,30.05,WSW,248,1.0,1.0,67,0.00,,,0.00,Wunderground v.1.15,2013-02-16 01:00:00,
2013-02-15 20:08:00,24.9,15.1,30.05,South,184,1.0,1.0,66,0.00,,,0.00,Wunderground v.1.15,2013-02-16 01:08:00,
2013-02-15 20:14:00,24.8,15.0,30.06,SW,217,2.0,2.0,66,0.00,,,0.00,Wunderground v.1.15,2013-02-16 01:14:00,
2013-02-15 20:20:00,24.7,15.3,30.06,SSW,210,2.0,2.0,67,0.00,,,0.00,Wunderground v.1.15,2013-02-16 01:20:00,
2013-02-15 20:26:00,24.5,15.4,30.06,WSW,240,1.0,2.0,68,0.00,,,0.00,Wunderground v.1.15,2013-02-16 01:26:00,
2013-02-15 20:32:00,24.3,15.3,30.05,East,88,1.0,2.0,68,0.00,,,0.00,Wunderground v.1.15,2013-02-16 01:32:00,
2013-02-15 20:38:00,24.1,15.4,30.05,WSW,250,1.0,2.0,69,0.00,,,0.00,Wunderground v.1.15,2013-02-16 01:38:00,
2013-02-15 20:44:00,23.7,15.0,30.06,SSW,212,0.0,1.0,69,0.00,,,0.00,Wunderground v.1.15,2013-02-16 01:44:00,
2013-02-15 20:50:00,23.4,14.7,30.06,SW,225,1.0,1.0,69,0.00,,,0.00,Wunderground v.1.15,2013-02-16 01:50:00,
2013-02-15 20:56:00,23.1,14.4,30.06,NNE,27,1.0,2.0,69,0.00,,,0.00,Wunderground v.1.15,2013-02-16 01:56:00,
2013-02-15 21:02:00,22.9,14.6,30.06,South,176,1.0,1.0,70,0.00,,,0.00,Wunderground v.1.15,2013-02-16 02:02:00,
2013-02-15 21:08:00,22.7,14.4,30.06,East,84,1.0,1.0,70,0.00,,,0.00,Wunderground v.1.15,2013-02-16 02:08:00,
2013-02-15 21:14:00,22.5,14.5,30.07,WSW,248,0.0,2.0,71,0.00,,,0.00,Wunderground v.1.15,2013-02-16 02:14:00,
2013-02-15 21:20:00,22.3,14.3,30.07,SSW,193,1.0,2.0,71,0.00,,,0.00,Wunderground v.1.15,2013-02-16 02:20:00,
2013-02-15 21:26:00,22.2,14.5,30.06,SSW,210,1.0,2.0,72,0.00,,,0.00,Wunderground v.1.15,2013-02-16 02:26:00,
2013-02-15 21:32:00,22.0,14.7,30.06,East,100,1.0,1.0,73,0.00,,,0.00,Wunderground v.1.15,2013-02-16 02:32:00,
2013-02-15 21:38:00,21.9,14.6,30.06,SSW,212,0.0,1.0,73,0.00,,,0.00,Wunderground v.1.15,2013-02-16 02:38:00,
2013-02-15 21:44:00,21.7,14.7,30.07,NNW,342,1.0,2.0,74,0.00,,,0.00,Wunderground v.1.15,2013-02-16 02:44:00,
2013-02-15 21:50:00,21.6,14.9,30.07,WSW,248,1.0,1.0,75,0.00,,,0.00,Wunderground v.1.15,2013-02-16 02:50:00,
2013-02-15 21:56:00,21.6,14.9,30.07,NW,323,1.0,1.0,75,0.00,,,0.00,Wunderground v.1.15,2013-02-16 02:56:00,
2013-02-15 22:02:00,21.4,15.0,30.07,WSW,256,1.0,2.0,76,0.00,,,0.00,Wunderground v.1.15,2013-02-16 03:02:00,
2013-02-15 22:08:00,21.3,14.9,30.07,NNE,13,0.0,2.0,76,0.00,,,0.00,Wunderground v.1.15,2013-02-16 03:08:00,
2013-02-15 22:14:00,21.2,14.8,30.07,WSW,246,1.0,3.0,76,0.00,,,0.00,Wunderground v.1.15,2013-02-16 03:14:00,
2013-02-15 22:20:00,21.2,15.1,30.07,WSW,246,1.0,1.0,77,0.00,,,0.00,Wunderground v.1.15,2013-02-16 03:20:00,
2013-02-15 22:26:00,21.1,15.0,30.07,SW,235,1.0,1.0,77,0.00,,,0.00,Wunderground v.1.15,2013-02-16 03:26:00,
2013-02-15 22:32:00,20.9,14.8,30.07,SW,231,0.0,1.0,77,0.00,,,0.00,Wunderground v.1.15,2013-02-16 03:32:00,
2013-02-15 22:38:00,20.8,14.7,30.07,SW,231,0.0,1.0,77,0.00,,,0.00,Wunderground v.1.15,2013-02-16 03:38:00,
2013-02-15 22:44:00,20.7,14.9,30.07,SW,217,0.0,0.0,78,0.00,,,0.00,Wunderground v.1.15,2013-02-16 03:44:00,
2013-02-15 22:50:00,20.5,14.7,30.07,WSW,238,0.0,0.0,78,0.00,,,0.00,Wunderground v.1.15,2013-02-16 03:50:00,
2013-02-15 22:56:00,20.4,14.6,30.07,WSW,238,0.0,1.0,78,0.00,,,0.00,Wunderground v.1.15,2013-02-16 03:56:00,
2013-02-15 23:02:00,20.3,14.8,30.07,WSW,245,0.0,0.0,79,0.00,,,0.00,Wunderground v.1.15,2013-02-16 04:02:00,
2013-02-15 23:08:00,20.2,14.7,30.07,SW,233,0.0,0.0,79,0.00,,,0.00,Wunderground v.1.15,2013-02-16 04:08:00,
2013-02-15 23:14:00,20.1,14.6,30.07,WSW,245,0.0,0.0,79,0.00,,,0.00,Wunderground v.1.15,2013-02-16 04:14:00,
2013-02-15 23:20:00,19.9,14.7,30.07,WSW,240,0.0,0.0,80,0.00,,,0.00,Wunderground v.1.15,2013-02-16 04:20:00,
2013-02-15 23:26:00,19.6,14.4,30.07,WSW,240,0.0,0.0,80,0.00,,,0.00,Wunderground v.1.15,2013-02-16 04:26:00,
2013-02-15 23:32:00,19.3,14.4,30.07,WSW,240,0.0,0.0,81,0.00,,,0.00,Wunderground v.1.15,2013-02-16 04:32:00,
2013-02-15 23:38:00,19.1,14.5,30.07,WSW,242,0.0,0.0,82,0.00,,,0.00,Wunderground v.1.15,2013-02-16 04:38:00,
2013-02-15 23:44:00,19.0,14.4,30.07,WSW,242,0.0,0.0,82,0.00,,,0.00,Wunderground v.1.15,2013-02-16 04:44:00,
2013-02-15 23:50:00,19.3,14.7,30.07,WSW,245,0.0,0.0,82,0.00,,,0.00,Wunderground v.1.15,2013-02-16 04:50:00,
2013-02-15 23:56:00,19.4,14.8,30.07,SW,233,0.0,1.0,82,0.00,,,0.00,Wunderground v.1.15,2013-02-16 04:56:00,